{"data":{"norad_id":62379,"intl_designator":"2024-247C","name":"HAWK-11B","alt_names":[],"object_type":"PAYLOAD","status":"ACTIVE","operator":null,"country":"US","launch_date":"2024-12-21","launch_site_code":"AFWTR","launch_vehicle":null,"mission":null,"orbit_class":"UNKNOWN","rcs_meters":null,"size_class":null,"mass_kg":null,"dimensions":null,"purposes":[],"wikipedia_slug":null,"has_3d_model":false,"image_url":null,"decayed_at":null,"tle_current":{"epoch":"2026-05-25T02:59:48.712704Z","epoch_age_seconds":60157,"freshness":"FRESH","line1":"1 62379U 24247C   26145.12486936  .00005866  00000+0  20845-3 0  9999","line2":"2 62379  45.0164  56.0775 0002838  94.1672 265.9536 15.29977550 79472","mean_motion":15.2997755,"eccentricity":0.0002838,"inclination_deg":45.0164,"raan_deg":56.0775,"arg_perigee_deg":94.1672,"mean_anomaly_deg":265.9536,"bstar":0.00020845,"rev_number":7947,"period_min":94.119028086393,"perigee_km":473.9341756575,"apogee_km":477.8245153352,"semimajor_km":6854.0163454964,"source":"CELESTRAK","updated_at":"2026-05-25T13:38:02.943915Z"}}}